Time,TemperatureF,DewpointF,PressureIn,WindDirection,WindDirectionDegrees,WindSpeedMPH,WindSpeedGustMPH,Humidity,HourlyPrecipIn,Conditions,Clouds,dailyrainin,SoftwareType,DateUTC
2013-01-02 00:02:00,12.3,9.0,30.21,South,179,0.0,-999.0,86,-99.99,,,0.00,weatherlink.com 1.10,2013-01-02 06:02:00,
2013-01-02 00:17:00,12.1,9.0,30.20,South,179,0.0,-999.0,87,-99.99,,,0.00,weatherlink.com 1.10,2013-01-02 06:17:00,
2013-01-02 00:32:00,11.7,9.0,30.19,South,179,0.0,-999.0,87,-99.99,,,0.00,weatherlink.com 1.10,2013-01-02 06:32:00,
2013-01-02 00:47:00,11.6,9.0,30.20,South,179,0.0,-999.0,88,-99.99,,,0.00,weatherlink.com 1.10,2013-01-02 06:47:00,
2013-01-02 01:03:00,11.4,8.0,30.19,South,179,0.0,-999.0,87,-99.99,,,0.00,weatherlink.com 1.10,2013-01-02 07:03:00,
2013-01-02 01:18:00,10.1,7.0,30.18,South,179,0.0,-999.0,87,-99.99,,,0.00,weatherlink.com 1.10,2013-01-02 07:18:00,
2013-01-02 01:33:00,10.3,8.0,30.18,South,179,0.0,-999.0,89,-99.99,,,0.00,weatherlink.com 1.10,2013-01-02 07:33:00,
2013-01-02 01:48:00,10.7,8.0,30.18,South,179,0.0,-999.0,90,-99.99,,,0.00,weatherlink.com 1.10,2013-01-02 07:48:00,
2013-01-02 02:03:00,10.9,8.0,30.19,South,179,0.0,-999.0,89,-99.99,,,0.00,weatherlink.com 1.10,2013-01-02 08:03:00,
2013-01-02 02:18:00,10.3,8.0,30.18,South,179,0.0,-999.0,88,-99.99,,,0.00,weatherlink.com 1.10,2013-01-02 08:18:00,
2013-01-02 02:33:00,11.3,9.0,30.18,South,179,0.0,-999.0,90,-99.99,,,0.00,weatherlink.com 1.10,2013-01-02 08:33:00,
2013-01-02 02:48:00,11.7,9.0,30.18,South,179,0.0,-999.0,90,-99.99,,,0.00,weatherlink.com 1.10,2013-01-02 08:48:00,
2013-01-02 03:03:00,11.8,9.0,30.17,South,179,0.0,-999.0,89,-99.99,,,0.00,weatherlink.com 1.10,2013-01-02 09:03:00,
2013-01-02 03:18:00,11.0,8.0,30.16,South,179,0.0,-999.0,88,-99.99,,,0.00,weatherlink.com 1.10,2013-01-02 09:18:00,
2013-01-02 03:33:00,11.8,10.0,30.16,South,179,0.0,-999.0,90,-99.99,,,0.00,weatherlink.com 1.10,2013-01-02 09:33:00,
2013-01-02 03:48:00,11.3,8.0,30.15,South,179,0.0,-999.0,87,-99.99,,,0.00,weatherlink.com 1.10,2013-01-02 09:48:00,
2013-01-02 04:03:00,10.9,8.0,30.14,South,179,0.0,-999.0,88,-99.99,,,0.00,weatherlink.com 1.10,2013-01-02 10:03:00,
2013-01-02 04:18:00,12.3,10.0,30.14,South,179,0.0,-999.0,90,-99.99,,,0.00,weatherlink.com 1.10,2013-01-02 10:18:00,
2013-01-02 04:33:00,10.7,7.0,30.14,South,179,0.0,-999.0,84,-99.99,,,0.00,weatherlink.com 1.10,2013-01-02 10:33:00,
2013-01-02 04:48:00,11.2,9.0,30.14,South,179,0.0,-999.0,90,-99.99,,,0.00,weatherlink.com 1.10,2013-01-02 10:48:00,
2013-01-02 05:03:00,9.6,5.0,30.14,South,179,0.0,-999.0,83,-99.99,,,0.00,weatherlink.com 1.10,2013-01-02 11:03:00,
2013-01-02 05:18:00,10.1,8.0,30.13,South,179,0.0,-999.0,90,-99.99,,,0.00,weatherlink.com 1.10,2013-01-02 11:18:00,
2013-01-02 05:33:00,10.1,8.0,30.14,South,179,0.0,-999.0,89,-99.99,,,0.00,weatherlink.com 1.10,2013-01-02 11:33:00,
2013-01-02 05:48:00,10.4,8.0,30.14,South,179,0.0,-999.0,89,-99.99,,,0.00,weatherlink.com 1.10,2013-01-02 11:48:00,
2013-01-02 06:03:00,10.3,8.0,30.14,South,179,0.0,-999.0,88,-99.99,,,0.00,weatherlink.com 1.10,2013-01-02 12:03:00,
2013-01-02 06:18:00,10.2,8.0,30.14,South,179,0.0,-999.0,90,-99.99,,,0.00,weatherlink.com 1.10,2013-01-02 12:18:00,
2013-01-02 06:33:00,10.2,7.0,30.15,South,179,0.0,-999.0,88,-99.99,,,0.00,weatherlink.com 1.10,2013-01-02 12:33:00,
2013-01-02 06:48:00,10.4,8.0,30.15,South,180,0.0,-999.0,89,-99.99,,,0.00,weatherlink.com 1.10,2013-01-02 12:48:00,
2013-01-02 07:03:00,11.7,9.0,30.15,South,180,0.0,-999.0,89,-99.99,,,0.00,weatherlink.com 1.10,2013-01-02 13:03:00,
2013-01-02 07:18:00,11.0,8.0,30.14,South,180,0.0,-999.0,87,-99.99,,,0.00,weatherlink.com 1.10,2013-01-02 13:18:00,
2013-01-02 07:33:00,11.0,8.0,30.13,South,180,0.0,-999.0,88,-99.99,,,0.00,weatherlink.com 1.10,2013-01-02 13:33:00,
2013-01-02 07:48:00,11.5,9.0,30.14,South,180,0.0,-999.0,89,-99.99,,,0.00,weatherlink.com 1.10,2013-01-02 13:48:00,
2013-01-02 08:03:00,13.0,11.0,30.15,South,180,0.0,-999.0,91,-99.99,,,0.00,weatherlink.com 1.10,2013-01-02 14:03:00,
2013-01-02 08:18:00,15.0,13.0,30.14,South,180,0.0,-999.0,90,-99.99,,,0.00,weatherlink.com 1.10,2013-01-02 14:18:00,
2013-01-02 08:33:00,16.1,13.0,30.14,South,180,2.0,-999.0,87,-99.99,,,0.00,weatherlink.com 1.10,2013-01-02 14:33:00,
2013-01-02 08:48:00,16.8,14.0,30.14,South,180,0.0,-999.0,87,-99.99,,,0.00,weatherlink.com 1.10,2013-01-02 14:48:00,
2013-01-02 09:03:00,17.6,14.0,30.14,South,180,0.0,-999.0,87,-99.99,,,0.00,weatherlink.com 1.10,2013-01-02 15:03:00,
2013-01-02 09:18:00,18.2,14.0,30.16,South,180,0.0,-999.0,84,-99.99,,,0.00,weatherlink.com 1.10,2013-01-02 15:18:00,
2013-01-02 09:33:00,19.0,14.0,30.16,South,180,1.0,-999.0,82,-99.99,,,0.00,weatherlink.com 1.10,2013-01-02 15:33:00,
2013-01-02 09:48:00,20.0,16.0,30.16,South,180,0.0,-999.0,83,-99.99,,,0.00,weatherlink.com 1.10,2013-01-02 15:48:00,
2013-01-02 10:03:00,21.2,16.0,30.16,South,180,0.0,-999.0,80,-99.99,,,0.00,weatherlink.com 1.10,2013-01-02 16:03:00,
2013-01-02 10:19:00,22.5,17.0,30.17,South,180,0.0,-999.0,80,-99.99,,,0.00,weatherlink.com 1.10,2013-01-02 16:19:00,
2013-01-02 10:34:00,23.4,18.0,30.18,South,181,0.0,-999.0,79,-99.99,,,0.00,weatherlink.com 1.10,2013-01-02 16:34:00,
2013-01-02 10:49:00,23.9,18.0,30.17,South,181,0.0,-999.0,79,-99.99,,,0.00,weatherlink.com 1.10,2013-01-02 16:49:00,
2013-01-02 11:04:00,24.8,19.0,30.17,South,183,0.0,-999.0,79,-99.99,,,0.00,weatherlink.com 1.10,2013-01-02 17:04:00,
2013-01-02 11:19:00,25.2,20.0,30.17,SSW,196,0.0,-999.0,80,-99.99,,,0.00,weatherlink.com 1.10,2013-01-02 17:19:00,
2013-01-02 11:34:00,26.4,21.0,30.17,SSW,196,0.0,-999.0,80,-99.99,,,0.00,weatherlink.com 1.10,2013-01-02 17:34:00,
2013-01-02 11:49:00,27.3,22.0,30.16,SSW,197,0.0,-999.0,80,-99.99,,,0.00,weatherlink.com 1.10,2013-01-02 17:49:00,
2013-01-02 12:04:00,28.3,23.0,30.16,SSW,198,0.0,-999.0,80,-99.99,,,0.00,weatherlink.com 1.10,2013-01-02 18:04:00,
2013-01-02 12:19:00,29.6,24.0,30.15,SSW,199,1.0,-999.0,79,-99.99,,,0.00,weatherlink.com 1.10,2013-01-02 18:19:00,
2013-01-02 12:34:00,30.4,24.0,30.14,SSW,200,1.0,-999.0,78,-99.99,,,0.00,weatherlink.com 1.10,2013-01-02 18:34:00,
2013-01-02 12:49:00,31.6,25.0,30.14,SSW,200,0.0,-999.0,78,-99.99,,,0.00,weatherlink.com 1.10,2013-01-02 18:49:00,
2013-01-02 13:04:00,33.5,27.0,30.13,SSW,200,0.0,-999.0,77,-99.99,,,0.00,weatherlink.com 1.10,2013-01-02 19:04:00,
2013-01-02 13:19:00,35.8,29.0,30.13,NNW,344,1.0,-999.0,75,-99.99,,,0.00,weatherlink.com 1.10,2013-01-02 19:19:00,
2013-01-02 13:34:00,36.4,29.0,30.12,West,275,4.0,-999.0,73,-99.99,,,0.00,weatherlink.com 1.10,2013-01-02 19:34:00,
2013-01-02 13:49:00,36.8,29.0,30.12,West,277,1.0,-999.0,73,-99.99,,,0.00,weatherlink.com 1.10,2013-01-02 19:49:00,
2013-01-02 14:04:00,36.4,29.0,30.13,West,261,5.0,-999.0,74,-99.99,,,0.00,weatherlink.com 1.10,2013-01-02 20:04:00,
2013-01-02 14:19:00,36.3,29.0,30.13,NW,304,5.0,-999.0,76,-99.99,,,0.00,weatherlink.com 1.10,2013-01-02 20:19:00,
2013-01-02 14:34:00,35.8,30.0,30.13,West,279,3.0,-999.0,79,-99.99,,,0.00,weatherlink.com 1.10,2013-01-02 20:34:00,
2013-01-02 14:49:00,35.5,30.0,30.14,WNW,286,2.0,-999.0,79,-99.99,,,0.00,weatherlink.com 1.10,2013-01-02 20:49:00,
2013-01-02 15:04:00,35.3,30.0,30.14,WNW,297,2.0,-999.0,80,-99.99,,,0.00,weatherlink.com 1.10,2013-01-02 21:04:00,
2013-01-02 15:19:00,35.2,30.0,30.14,WNW,288,0.0,-999.0,81,-99.99,,,0.00,weatherlink.com 1.10,2013-01-02 21:19:00,
2013-01-02 15:34:00,35.1,30.0,30.15,WNW,297,0.0,-999.0,81,-99.99,,,0.00,weatherlink.com 1.10,2013-01-02 21:34:00,
2013-01-02 15:49:00,35.2,30.0,30.15,WNW,297,0.0,-999.0,81,-99.99,,,0.00,weatherlink.com 1.10,2013-01-02 21:49:00,
2013-01-02 16:04:00,35.2,30.0,30.16,WNW,295,1.0,-999.0,82,-99.99,,,0.00,weatherlink.com 1.10,2013-01-02 22:04:00,
2013-01-02 16:19:00,35.1,30.0,30.17,WNW,294,4.0,-999.0,82,-99.99,,,0.00,weatherlink.com 1.10,2013-01-02 22:19:00,
2013-01-02 16:34:00,35.0,30.0,30.18,West,277,1.0,-999.0,82,-99.99,,,0.00,weatherlink.com 1.10,2013-01-02 22:34:00,
2013-01-02 16:49:00,34.9,30.0,30.18,West,275,0.0,-999.0,82,-99.99,,,0.00,weatherlink.com 1.10,2013-01-02 22:49:00,
2013-01-02 17:04:00,34.8,30.0,30.19,West,279,0.0,-999.0,82,-99.99,,,0.00,weatherlink.com 1.10,2013-01-02 23:04:00,
2013-01-02 17:20:00,34.6,30.0,30.19,NW,308,5.0,-999.0,82,-99.99,,,0.00,weatherlink.com 1.10,2013-01-02 23:20:00,
2013-01-02 17:35:00,34.5,30.0,30.19,NW,304,1.0,-999.0,82,-99.99,,,0.00,weatherlink.com 1.10,2013-01-02 23:35:00,
2013-01-02 17:50:00,34.4,29.0,30.20,NW,304,1.0,-999.0,81,-99.99,,,0.00,weatherlink.com 1.10,2013-01-02 23:50:00,
2013-01-02 18:05:00,34.3,29.0,30.20,NW,304,0.0,-999.0,81,-99.99,,,0.00,weatherlink.com 1.10,2013-01-03 00:05:00,
2013-01-02 18:20:00,34.2,29.0,30.20,NW,304,1.0,-999.0,81,-99.99,,,0.00,weatherlink.com 1.10,2013-01-03 00:20:00,
2013-01-02 18:35:00,34.1,29.0,30.21,WNW,303,1.0,-999.0,81,-99.99,,,0.00,weatherlink.com 1.10,2013-01-03 00:35:00,
2013-01-02 18:50:00,34.1,29.0,30.21,West,278,0.0,-999.0,81,-99.99,,,0.00,weatherlink.com 1.10,2013-01-03 00:50:00,
2013-01-02 19:05:00,34.0,29.0,30.21,West,277,1.0,-999.0,82,-99.99,,,0.00,weatherlink.com 1.10,2013-01-03 01:05:00,
2013-01-02 19:20:00,33.9,29.0,30.21,West,277,0.0,-999.0,82,-99.99,,,0.00,weatherlink.com 1.10,2013-01-03 01:20:00,
2013-01-02 19:35:00,33.9,29.0,30.22,West,275,0.0,-999.0,82,-99.99,,,0.00,weatherlink.com 1.10,2013-01-03 01:35:00,
2013-01-02 19:50:00,33.5,29.0,30.22,West,275,0.0,-999.0,82,-99.99,,,0.00,weatherlink.com 1.10,2013-01-03 01:50:00,
2013-01-02 20:05:00,33.3,29.0,30.23,West,275,0.0,-999.0,83,-99.99,,,0.00,weatherlink.com 1.10,2013-01-03 02:05:00,
2013-01-02 20:20:00,33.1,29.0,30.22,West,275,0.0,-999.0,83,-99.99,,,0.00,weatherlink.com 1.10,2013-01-03 02:20:00,
2013-01-02 20:35:00,33.0,28.0,30.22,West,275,2.0,-999.0,83,-99.99,,,0.00,weatherlink.com 1.10,2013-01-03 02:35:00,
2013-01-02 20:51:00,33.0,28.0,30.23,West,278,0.0,-999.0,83,-99.99,,,0.00,weatherlink.com 1.10,2013-01-03 02:51:00,
2013-01-02 21:05:00,33.0,28.0,30.23,West,277,0.0,-999.0,83,-99.99,,,0.00,weatherlink.com 1.10,2013-01-03 03:05:00,
2013-01-02 21:20:00,33.1,29.0,30.24,West,277,0.0,-999.0,83,-99.99,,,0.00,weatherlink.com 1.10,2013-01-03 03:20:00,
2013-01-02 21:35:00,32.9,28.0,30.25,West,277,0.0,-999.0,83,-99.99,,,0.00,weatherlink.com 1.10,2013-01-03 03:35:00,
2013-01-02 21:50:00,32.8,28.0,30.25,West,277,0.0,-999.0,83,-99.99,,,0.00,weatherlink.com 1.10,2013-01-03 03:50:00,
2013-01-02 22:05:00,32.6,28.0,30.25,West,277,0.0,-999.0,83,-99.99,,,0.00,weatherlink.com 1.10,2013-01-03 04:05:00,
2013-01-02 22:20:00,32.4,28.0,30.26,West,277,0.0,-999.0,84,-99.99,,,0.00,weatherlink.com 1.10,2013-01-03 04:20:00,
2013-01-02 22:35:00,32.3,28.0,30.26,West,277,0.0,-999.0,84,-99.99,,,0.00,weatherlink.com 1.10,2013-01-03 04:35:00,
2013-01-02 22:50:00,32.0,28.0,30.27,West,277,0.0,-999.0,85,-99.99,,,0.00,weatherlink.com 1.10,2013-01-03 04:50:00,
2013-01-02 23:21:00,31.5,28.0,30.28,West,277,0.0,-999.0,86,-99.99,,,0.00,weatherlink.com 1.10,2013-01-03 05:21:00,
2013-01-02 23:36:00,31.2,28.0,30.28,West,277,0.0,-999.0,86,-99.99,,,0.00,weatherlink.com 1.10,2013-01-03 05:36:00,
2013-01-02 23:51:00,30.9,27.0,30.28,West,277,0.0,-999.0,86,-99.99,,,0.00,weatherlink.com 1.10,2013-01-03 05:51:00,